SPOT 1/Viking Rocket - Orbit

View from above orbital plane
View from above orbital plane
View from above satellite
View from above satellite

Ground track
Ground track

The orbit data is extracted from the following two-line orbital elements,

1 16615U 86019C   13144.82443215  .00000232  00000-0  10530-3 0  1109
2 16615 098.8103 186.5609 0012998 084.8425 330.2014 14.31063301427148
Epoch (UTC): 24 May 2013 19:47:10
Eccentricity: 0.0012998
inclination: 98.8103°
perigee height: 779 km
apogee height: 797 km
right ascension of ascending node: 186.5609°
argument of perigee: 84.8425°
revolutions per day: 14.31063301
mean anomaly at epoch: 330.2014°
orbit number at epoch: 42714

The dashed part of the orbit path shows where the satellite is in the earth's shadow,  

Developed and maintained by Chris Peat, Heavens-Above GmbH. Please read the updated FAQ before sending e-mail. Imprint. DLR